ロニオス彗星

315P/LONEOS (2016)

English version
Home page
Updated on March 25, 2017

---------------------------------------------------------------------

・ プロフィール

符号 315P/2013 V6
検出日 2013年11月6日
検出光度 21.6等
検出者 M. Micheli, Y. Fernandez, C. Lisse, H. Weaver (New Mexico)

・ 写真集

・ 軌道要素

Epoch 2016 Nov. 28.0 TT = JDT 2457720.5
T 2016 Dec. 6.82738 TT                                  MPCW
q   2.4204210            (2000.0)            P               Q
n   0.08780382     Peri.   67.18909     -0.68638415     -0.66768535
a   5.0133393      Node    69.55182     +0.50163411     -0.72163023
e   0.5172038      Incl.   17.91506     +0.52653587     -0.18288270
P  11.23
From 1411 observations 2004 Nov. 3-2017 Mar. 7, mean residual 0".6.

・ 星図

・ 光度変化

        m1 = 11.0 + 5 logΔ + 10.0 log r  [    ,-300]  (              〜2016年 2月10日)
        m1 =  3.2 + 5 logΔ + 25.0 log r  [-300,    ]  (2016年 2月10日〜              )

---------------------------------------------------------------------

軌道要素はM.P.E.C. 2017-E59に掲載されたものです。
星図はステラナビゲータ Ver.8 (アストロアーツ) で作成したものです。
光度グラフはComet for Windowsで作成したものです。

---------------------------------------------------------------------

Copyright(C) Seiichi Yoshida (comet@aerith.net). All rights reserved.